<?xml version="1.0" encoding="UTF-8" standalone="no" ?>
<gpx xmlns="http://www.topografix.com/GPX/1/1" xmlns:xsi="http://www.w3.org/2001/XMLSchema-instance" xsi:schemaLocation="http://www.topografix.com/GPX/1/1 http://www.topografix.com/GPX/1/1/gpx.xsd" version="1.1" creator="VisuGPX - https://www.visugpx.com">
  <metadata>
    <name>FontaineBleau </name>
    <desc><![CDATA[Deux parcours bien sympas et sportifs.
Génial en hivers]]></desc>
  </metadata>
  <wpt lat="48.40847" lon="2.63913">
    <ele>132</ele>
    <name><![CDATA[Croix de Franchard]]></name>
    <link href="C:/Users/lfuggetta/AppData/Roaming/Garmin/BaseCamp/Database/4.4/Adventures/d385b613-030f-4e69-a85b-1e5e04da7607.adb/Photos/Croix%20de%20Franchard.jpg"></link>
    <type><![CDATA[photo]]></type>
  </wpt>
  <wpt lat="48.40872" lon="2.63897">
    <ele>132.7578125</ele>
    <name><![CDATA[D301 Rte Ronde Croix de Franchard]]></name>
    <type><![CDATA[user]]></type>
  </wpt>
  <wpt lat="48.39412" lon="2.57537">
    <ele>70</ele>
    <name><![CDATA[Lac de sable]]></name>
    <link href="C:/Users/lfuggetta/AppData/Roaming/Garmin/BaseCamp/Database/4.4/Adventures/d385b613-030f-4e69-a85b-1e5e04da7607.adb/Photos/Lac%20de%20sable.jpg"></link>
    <type><![CDATA[photo]]></type>
  </wpt>
  <wpt lat="48.43623" lon="2.63824">
    <ele>130.9</ele>
    <name><![CDATA[S'il neige]]></name>
    <link href="C:/Users/lfuggetta/AppData/Roaming/Garmin/BaseCamp/Database/4.4/Adventures/d385b613-030f-4e69-a85b-1e5e04da7607.adb/Photos/images%202.jpg"></link>
    <type><![CDATA[photo]]></type>
  </wpt>
  <wpt lat="48.39079" lon="2.5964">
    <ele>122.2</ele>
    <name><![CDATA[Tunel]]></name>
    <link href="C:/Users/lfuggetta/AppData/Roaming/Garmin/BaseCamp/Database/4.4/Adventures/d385b613-030f-4e69-a85b-1e5e04da7607.adb/Photos/images.jpg"></link>
    <type><![CDATA[photo]]></type>
  </wpt>
  <trk>
    <name><![CDATA[FB Circuit 1]]></name>
    <trkseg>
      <trkpt lat="48.40858" lon="2.63849">
        <ele>154.86</ele>
        <time>2014-01-04T11:17:12Z</time>
      </trkpt>
      <trkpt lat="48.40855" lon="2.63779">
        <ele>154.67</ele>
        <time>2014-01-04T11:17:25Z</time>
      </trkpt>
      <trkpt lat="48.40862" lon="2.63665">
        <ele>155.62</ele>
        <time>2014-01-04T11:17:46Z</time>
      </trkpt>
      <trkpt lat="48.40888" lon="2.63577">
        <ele>155.84</ele>
        <time>2014-01-04T11:18:06Z</time>
      </trkpt>
      <trkpt lat="48.40894" lon="2.63558">
        <ele>165.68</ele>
        <time>2014-01-04T12:08:27Z</time>
      </trkpt>
      <trkpt lat="48.40902" lon="2.63494">
        <ele>165.39</ele>
        <time>2014-01-04T12:08:48Z</time>
      </trkpt>
      <trkpt lat="48.40885" lon="2.63425">
        <ele>164.87</ele>
        <time>2014-01-04T12:09:09Z</time>
      </trkpt>
      <trkpt lat="48.40869" lon="2.63337">
        <ele>165.36</ele>
        <time>2014-01-04T12:09:28Z</time>
      </trkpt>
      <trkpt lat="48.40868" lon="2.63243">
        <ele>163.69</ele>
        <time>2014-01-04T12:09:48Z</time>
      </trkpt>
      <trkpt lat="48.40882" lon="2.63223">
        <ele>163.71</ele>
        <time>2014-01-04T12:09:54Z</time>
      </trkpt>
      <trkpt lat="48.40908" lon="2.63202">
        <ele>163.89</ele>
        <time>2014-01-04T12:10:02Z</time>
      </trkpt>
      <trkpt lat="48.40962" lon="2.63139">
        <ele>162.27</ele>
        <time>2014-01-04T12:10:23Z</time>
      </trkpt>
      <trkpt lat="48.41022" lon="2.63061">
        <ele>164.28</ele>
        <time>2014-01-04T12:10:50Z</time>
      </trkpt>
      <trkpt lat="48.41019" lon="2.63039">
        <ele>164.06</ele>
        <time>2014-01-04T12:10:56Z</time>
      </trkpt>
      <trkpt lat="48.40995" lon="2.62925">
        <ele>162.56</ele>
        <time>2014-01-04T12:11:16Z</time>
      </trkpt>
      <trkpt lat="48.40984" lon="2.62868">
        <ele>161.36</ele>
        <time>2014-01-04T12:11:25Z</time>
      </trkpt>
      <trkpt lat="48.40975" lon="2.62807">
        <ele>159.24</ele>
        <time>2014-01-04T12:11:34Z</time>
      </trkpt>
      <trkpt lat="48.40958" lon="2.62683">
        <ele>158.11</ele>
        <time>2014-01-04T12:11:54Z</time>
      </trkpt>
      <trkpt lat="48.40963" lon="2.62619">
        <ele>157.54</ele>
        <time>2014-01-04T12:12:04Z</time>
      </trkpt>
      <trkpt lat="48.40971" lon="2.62543">
        <ele>156.37</ele>
        <time>2014-01-04T12:12:16Z</time>
      </trkpt>
      <trkpt lat="48.41004" lon="2.62462">
        <ele>152.3</ele>
        <time>2014-01-04T12:12:29Z</time>
      </trkpt>
      <trkpt lat="48.41026" lon="2.62412">
        <ele>151.06</ele>
        <time>2014-01-04T12:12:36Z</time>
      </trkpt>
      <trkpt lat="48.41053" lon="2.62351">
        <ele>149.55</ele>
        <time>2014-01-04T12:12:44Z</time>
      </trkpt>
      <trkpt lat="48.41056" lon="2.6218">
        <ele>141.88</ele>
        <time>2014-01-04T12:13:01Z</time>
      </trkpt>
      <trkpt lat="48.41055" lon="2.62169">
        <ele>140.7</ele>
        <time>2014-01-04T12:13:02Z</time>
      </trkpt>
      <trkpt lat="48.41055" lon="2.62145">
        <ele>140.03</ele>
        <time>2014-01-04T12:13:04Z</time>
      </trkpt>
      <trkpt lat="48.41059" lon="2.62083">
        <ele>136.57</ele>
        <time>2014-01-04T12:13:09Z</time>
      </trkpt>
      <trkpt lat="48.41072" lon="2.61984">
        <ele>132.51</ele>
        <time>2014-01-04T12:13:17Z</time>
      </trkpt>
      <trkpt lat="48.41091" lon="2.61848">
        <ele>128.6</ele>
        <time>2014-01-04T12:13:28Z</time>
      </trkpt>
      <trkpt lat="48.4113" lon="2.61668">
        <ele>125.15</ele>
        <time>2014-01-04T12:13:47Z</time>
      </trkpt>
      <trkpt lat="48.41135" lon="2.6165">
        <ele>126.14</ele>
        <time>2014-01-04T12:13:49Z</time>
      </trkpt>
      <trkpt lat="48.41142" lon="2.6161">
        <ele>125.11</ele>
        <time>2014-01-04T12:13:54Z</time>
      </trkpt>
      <trkpt lat="48.41172" lon="2.61444">
        <ele>122.55</ele>
        <time>2014-01-04T12:14:21Z</time>
      </trkpt>
      <trkpt lat="48.41212" lon="2.61245">
        <ele>120.47</ele>
        <time>2014-01-04T12:14:56Z</time>
      </trkpt>
      <trkpt lat="48.41245" lon="2.61071">
        <ele>119.38</ele>
        <time>2014-01-04T12:15:26Z</time>
      </trkpt>
      <trkpt lat="48.41262" lon="2.6098">
        <ele>118.66</ele>
        <time>2014-01-04T12:15:42Z</time>
      </trkpt>
      <trkpt lat="48.41296" lon="2.60884">
        <ele>119.04</ele>
        <time>2014-01-04T12:16:02Z</time>
      </trkpt>
      <trkpt lat="48.41321" lon="2.60873">
        <ele>118.67</ele>
        <time>2014-01-04T12:16:09Z</time>
      </trkpt>
      <trkpt lat="48.4148" lon="2.6081">
        <ele>118.92</ele>
        <time>2014-01-04T12:16:50Z</time>
      </trkpt>
      <trkpt lat="48.41606" lon="2.60759">
        <ele>118.88</ele>
        <time>2014-01-04T12:17:19Z</time>
      </trkpt>
      <trkpt lat="48.41644" lon="2.60708">
        <ele>118.67</ele>
        <time>2014-01-04T12:17:32Z</time>
      </trkpt>
      <trkpt lat="48.41667" lon="2.60669">
        <ele>118.67</ele>
        <time>2014-01-04T12:17:41Z</time>
      </trkpt>
      <trkpt lat="48.4167" lon="2.60576">
        <ele>117.75</ele>
        <time>2014-01-04T12:17:56Z</time>
      </trkpt>
      <trkpt lat="48.41662" lon="2.60509">
        <ele>117.8</ele>
        <time>2014-01-04T12:18:05Z</time>
      </trkpt>
      <trkpt lat="48.41627" lon="2.60178">
        <ele>114.86</ele>
        <time>2014-01-04T12:18:47Z</time>
      </trkpt>
      <trkpt lat="48.41606" lon="2.60152">
        <ele>114.86</ele>
        <time>2014-01-04T12:18:56Z</time>
      </trkpt>
      <trkpt lat="48.41587" lon="2.60121">
        <ele>115.03</ele>
        <time>2014-01-04T12:19:04Z</time>
      </trkpt>
      <trkpt lat="48.41492" lon="2.59966">
        <ele>114.31</ele>
        <time>2014-01-04T12:19:42Z</time>
      </trkpt>
      <trkpt lat="48.41423" lon="2.59914">
        <ele>113.36</ele>
        <time>2014-01-04T12:20:05Z</time>
      </trkpt>
      <trkpt lat="48.41359" lon="2.599">
        <ele>113.88</ele>
        <time>2014-01-04T12:20:20Z</time>
      </trkpt>
      <trkpt lat="48.41199" lon="2.59866">
        <ele>114.14</ele>
        <time>2014-01-04T12:20:56Z</time>
      </trkpt>
      <trkpt lat="48.41122" lon="2.59848">
        <ele>113.52</ele>
        <time>2014-01-04T12:21:15Z</time>
      </trkpt>
      <trkpt lat="48.41097" lon="2.59817">
        <ele>112.57</ele>
        <time>2014-01-04T12:22:15Z</time>
      </trkpt>
      <trkpt lat="48.41063" lon="2.59749">
        <ele>113.76</ele>
        <time>2014-01-04T12:22:33Z</time>
      </trkpt>
      <trkpt lat="48.4103" lon="2.59687">
        <ele>112.91</ele>
        <time>2014-01-04T12:22:48Z</time>
      </trkpt>
      <trkpt lat="48.40965" lon="2.59581">
        <ele>114.11</ele>
        <time>2014-01-04T12:23:13Z</time>
      </trkpt>
      <trkpt lat="48.40963" lon="2.59508">
        <ele>113.61</ele>
        <time>2014-01-04T12:23:26Z</time>
      </trkpt>
      <trkpt lat="48.4098" lon="2.59279">
        <ele>114.5</ele>
        <time>2014-01-04T12:24:05Z</time>
      </trkpt>
      <trkpt lat="48.4098" lon="2.59141">
        <ele>113.57</ele>
        <time>2014-01-04T12:24:29Z</time>
      </trkpt>
      <trkpt lat="48.40979" lon="2.59128">
        <ele>112.82</ele>
        <time>2014-01-04T12:24:31Z</time>
      </trkpt>
      <trkpt lat="48.40977" lon="2.59094">
        <ele>113.44</ele>
        <time>2014-01-04T12:24:37Z</time>
      </trkpt>
      <trkpt lat="48.40986" lon="2.58989">
        <ele>113.57</ele>
        <time>2014-01-04T12:24:52Z</time>
      </trkpt>
      <trkpt lat="48.41" lon="2.58881">
        <ele>113.59</ele>
        <time>2014-01-04T12:25:08Z</time>
      </trkpt>
      <trkpt lat="48.41018" lon="2.58776">
        <ele>113.79</ele>
        <time>2014-01-04T12:25:23Z</time>
      </trkpt>
      <trkpt lat="48.41018" lon="2.58663">
        <ele>112.99</ele>
        <time>2014-01-04T12:25:39Z</time>
      </trkpt>
      <trkpt lat="48.41022" lon="2.5862">
        <ele>113.56</ele>
        <time>2014-01-04T12:25:46Z</time>
      </trkpt>
      <trkpt lat="48.41042" lon="2.58501">
        <ele>111.77</ele>
        <time>2014-01-04T12:26:06Z</time>
      </trkpt>
      <trkpt lat="48.41038" lon="2.58363">
        <ele>111.91</ele>
        <time>2014-01-04T12:26:28Z</time>
      </trkpt>
      <trkpt lat="48.41053" lon="2.58276">
        <ele>111.74</ele>
        <time>2014-01-04T12:26:42Z</time>
      </trkpt>
      <trkpt lat="48.41032" lon="2.58141">
        <ele>111.44</ele>
        <time>2014-01-04T12:27:04Z</time>
      </trkpt>
      <trkpt lat="48.41032" lon="2.581">
        <ele>112.33</ele>
        <time>2014-01-04T12:27:10Z</time>
      </trkpt>
      <trkpt lat="48.41018" lon="2.57987">
        <ele>112.37</ele>
        <time>2014-01-04T12:27:26Z</time>
      </trkpt>
      <trkpt lat="48.41012" lon="2.57948">
        <ele>112.15</ele>
        <time>2014-01-04T12:27:32Z</time>
      </trkpt>
      <trkpt lat="48.40985" lon="2.57936">
        <ele>112.41</ele>
        <time>2014-01-04T12:27:43Z</time>
      </trkpt>
      <trkpt lat="48.40964" lon="2.57979">
        <ele>115.05</ele>
        <time>2014-01-04T12:28:00Z</time>
      </trkpt>
      <trkpt lat="48.40962" lon="2.57984">
        <ele>115.53</ele>
        <time>2014-01-04T12:28:02Z</time>
      </trkpt>
      <trkpt lat="48.40953" lon="2.58002">
        <ele>115.74</ele>
        <time>2014-01-04T12:28:10Z</time>
      </trkpt>
      <trkpt lat="48.40913" lon="2.58075">
        <ele>120.03</ele>
        <time>2014-01-04T12:28:37Z</time>
      </trkpt>
      <trkpt lat="48.40883" lon="2.5817">
        <ele>121.73</ele>
        <time>2014-01-04T12:29:06Z</time>
      </trkpt>
      <trkpt lat="48.40872" lon="2.58232">
        <ele>124.69</ele>
        <time>2014-01-04T12:29:27Z</time>
      </trkpt>
      <trkpt lat="48.40876" lon="2.58275">
        <ele>128.88</ele>
        <time>2014-01-04T12:29:43Z</time>
      </trkpt>
      <trkpt lat="48.40878" lon="2.5831">
        <ele>132.05</ele>
        <time>2014-01-04T12:29:56Z</time>
      </trkpt>
      <trkpt lat="48.40888" lon="2.58318">
        <ele>132.17</ele>
        <time>2014-01-04T12:30:03Z</time>
      </trkpt>
      <trkpt lat="48.40927" lon="2.5834">
        <ele>130.97</ele>
        <time>2014-01-04T12:30:20Z</time>
      </trkpt>
      <trkpt lat="48.40935" lon="2.58345">
        <ele>129.61</ele>
        <time>2014-01-04T12:30:48Z</time>
      </trkpt>
      <trkpt lat="48.40927" lon="2.58353">
        <ele>131.26</ele>
        <time>2014-01-04T12:31:12Z</time>
      </trkpt>
      <trkpt lat="48.40931" lon="2.58391">
        <ele>131.43</ele>
        <time>2014-01-04T12:31:24Z</time>
      </trkpt>
      <trkpt lat="48.40929" lon="2.58395">
        <ele>131.76</ele>
        <time>2014-01-04T12:31:48Z</time>
      </trkpt>
      <trkpt lat="48.40928" lon="2.58395">
        <ele>131.98</ele>
        <time>2014-01-04T12:32:15Z</time>
      </trkpt>
      <trkpt lat="48.40927" lon="2.58424">
        <ele>130.61</ele>
        <time>2014-01-04T12:32:31Z</time>
      </trkpt>
      <trkpt lat="48.40926" lon="2.58428">
        <ele>130.44</ele>
        <time>2014-01-04T12:32:35Z</time>
      </trkpt>
      <trkpt lat="48.40918" lon="2.58464">
        <ele>126.83</ele>
        <time>2014-01-04T12:32:44Z</time>
      </trkpt>
      <trkpt lat="48.40915" lon="2.58478">
        <ele>126.11</ele>
        <time>2014-01-04T12:32:46Z</time>
      </trkpt>
      <trkpt lat="48.40905" lon="2.58516">
        <ele>124.76</ele>
        <time>2014-01-04T12:32:54Z</time>
      </trkpt>
      <trkpt lat="48.40884" lon="2.58528">
        <ele>126.16</ele>
        <time>2014-01-04T12:33:07Z</time>
      </trkpt>
      <trkpt lat="48.4086" lon="2.58537">
        <ele>128.2</ele>
        <time>2014-01-04T12:33:20Z</time>
      </trkpt>
      <trkpt lat="48.40834" lon="2.58591">
        <ele>130.72</ele>
        <time>2014-01-04T12:33:43Z</time>
      </trkpt>
      <trkpt lat="48.4079" lon="2.58637">
        <ele>134.05</ele>
        <time>2014-01-04T12:34:08Z</time>
      </trkpt>
      <trkpt lat="48.40759" lon="2.58682">
        <ele>138.16</ele>
        <time>2014-01-04T12:34:29Z</time>
      </trkpt>
      <trkpt lat="48.40732" lon="2.58732">
        <ele>138.16</ele>
        <time>2014-01-04T12:34:49Z</time>
      </trkpt>
      <trkpt lat="48.40743" lon="2.5877">
        <ele>142.95</ele>
        <time>2014-01-04T12:35:06Z</time>
      </trkpt>
      <trkpt lat="48.40746" lon="2.58771">
        <ele>144.22</ele>
        <time>2014-01-04T12:35:09Z</time>
      </trkpt>
      <trkpt lat="48.40754" lon="2.58788">
        <ele>148.54</ele>
        <time>2014-01-04T12:35:28Z</time>
      </trkpt>
      <trkpt lat="48.40753" lon="2.58796">
        <ele>149.58</ele>
        <time>2014-01-04T12:35:44Z</time>
      </trkpt>
      <trkpt lat="48.40729" lon="2.58812">
        <ele>151.73</ele>
        <time>2014-01-04T12:35:58Z</time>
      </trkpt>
      <trkpt lat="48.40707" lon="2.58837">
        <ele>155.9</ele>
        <time>2014-01-04T12:36:16Z</time>
      </trkpt>
      <trkpt lat="48.40707" lon="2.58848">
        <ele>156.9</ele>
        <time>2014-01-04T12:36:21Z</time>
      </trkpt>
      <trkpt lat="48.40706" lon="2.58867">
        <ele>159.17</ele>
        <time>2014-01-04T12:36:30Z</time>
      </trkpt>
      <trkpt lat="48.40708" lon="2.58881">
        <ele>161.45</ele>
        <time>2014-01-04T12:36:36Z</time>
      </trkpt>
      <trkpt lat="48.40709" lon="2.5889">
        <ele>162.4</ele>
        <time>2014-01-04T12:36:40Z</time>
      </trkpt>
      <trkpt lat="48.40709" lon="2.58921">
        <ele>163.89</ele>
        <time>2014-01-04T12:36:52Z</time>
      </trkpt>
      <trkpt lat="48.40708" lon="2.58953">
        <ele>164.76</ele>
        <time>2014-01-04T12:37:19Z</time>
      </trkpt>
      <trkpt lat="48.40719" lon="2.58964">
        <ele>163.99</ele>
        <time>2014-01-04T12:38:22Z</time>
      </trkpt>
      <trkpt lat="48.40713" lon="2.58958">
        <ele>165.69</ele>
        <time>2014-01-04T12:39:09Z</time>
      </trkpt>
      <trkpt lat="48.40724" lon="2.58965">
        <ele>164.39</ele>
        <time>2014-01-04T12:39:57Z</time>
      </trkpt>
      <trkpt lat="48.40727" lon="2.58973">
        <ele>163.5</ele>
        <time>2014-01-04T12:40:17Z</time>
      </trkpt>
      <trkpt lat="48.40734" lon="2.58981">
        <ele>160.25</ele>
        <time>2014-01-04T12:40:24Z</time>
      </trkpt>
      <trkpt lat="48.40741" lon="2.58997">
        <ele>154.5</ele>
        <time>2014-01-04T12:40:32Z</time>
      </trkpt>
      <trkpt lat="48.40742" lon="2.59012">
        <ele>150.38</ele>
        <time>2014-01-04T12:40:37Z</time>
      </trkpt>
      <trkpt lat="48.40743" lon="2.59019">
        <ele>149.07</ele>
        <time>2014-01-04T12:40:54Z</time>
      </trkpt>
      <trkpt lat="48.40748" lon="2.59028">
        <ele>147.41</ele>
        <time>2014-01-04T12:41:26Z</time>
      </trkpt>
      <trkpt lat="48.4076" lon="2.59059">
        <ele>145.09</ele>
        <time>2014-01-04T12:41:39Z</time>
      </trkpt>
      <trkpt lat="48.40756" lon="2.59064">
        <ele>145.03</ele>
        <time>2014-01-04T12:41:51Z</time>
      </trkpt>
      <trkpt lat="48.40754" lon="2.59064">
        <ele>144.65</ele>
        <time>2014-01-04T12:42:53Z</time>
      </trkpt>
      <trkpt lat="48.40761" lon="2.59099">
        <ele>146.11</ele>
        <time>2014-01-04T12:43:36Z</time>
      </trkpt>
      <trkpt lat="48.40739" lon="2.59109">
        <ele>150.93</ele>
        <time>2014-01-04T12:43:52Z</time>
      </trkpt>
      <trkpt lat="48.40728" lon="2.59134">
        <ele>156.07</ele>
        <time>2014-01-04T12:44:08Z</time>
      </trkpt>
      <trkpt lat="48.4072" lon="2.59142">
        <ele>159.51</ele>
        <time>2014-01-04T12:44:28Z</time>
      </trkpt>
      <trkpt lat="48.40706" lon="2.59153">
        <ele>161.7</ele>
        <time>2014-01-04T12:44:54Z</time>
      </trkpt>
      <trkpt lat="48.40703" lon="2.59159">
        <ele>161.72</ele>
        <time>2014-01-04T12:45:24Z</time>
      </trkpt>
      <trkpt lat="48.40673" lon="2.59183">
        <ele>160.67</ele>
        <time>2014-01-04T12:45:38Z</time>
      </trkpt>
      <trkpt lat="48.40641" lon="2.59195">
        <ele>157.62</ele>
        <time>2014-01-04T12:45:48Z</time>
      </trkpt>
      <trkpt lat="48.40626" lon="2.59185">
        <ele>155.51</ele>
        <time>2014-01-04T12:45:53Z</time>
      </trkpt>
      <trkpt lat="48.40579" lon="2.59177">
        <ele>153.23</ele>
        <time>2014-01-04T12:46:09Z</time>
      </trkpt>
      <trkpt lat="48.40575" lon="2.59179">
        <ele>152.74</ele>
        <time>2014-01-04T12:46:10Z</time>
      </trkpt>
      <trkpt lat="48.40557" lon="2.5919">
        <ele>149.68</ele>
        <time>2014-01-04T12:46:15Z</time>
      </trkpt>
      <trkpt lat="48.40553" lon="2.59186">
        <ele>149.58</ele>
        <time>2014-01-04T12:46:16Z</time>
      </trkpt>
      <trkpt lat="48.40539" lon="2.59183">
        <ele>146.58</ele>
        <time>2014-01-04T12:46:21Z</time>
      </trkpt>
      <trkpt lat="48.40524" lon="2.5919">
        <ele>142.39</ele>
        <time>2014-01-04T12:46:29Z</time>
      </trkpt>
      <trkpt lat="48.40514" lon="2.59186">
        <ele>138.48</ele>
        <time>2014-01-04T12:46:36Z</time>
      </trkpt>
      <trkpt lat="48.40504" lon="2.59182">
        <ele>134.65</ele>
        <time>2014-01-04T12:46:41Z</time>
      </trkpt>
      <trkpt lat="48.40482" lon="2.59207">
        <ele>132.32</ele>
        <time>2014-01-04T12:46:54Z</time>
      </trkpt>
      <trkpt lat="48.4048" lon="2.59217">
        <ele>133.52</ele>
        <time>2014-01-04T12:47:18Z</time>
      </trkpt>
      <trkpt lat="48.40479" lon="2.59216">
        <ele>133.41</ele>
        <time>2014-01-04T12:47:52Z</time>
      </trkpt>
      <trkpt lat="48.40463" lon="2.59201">
        <ele>135.17</ele>
        <time>2014-01-04T12:48:03Z</time>
      </trkpt>
      <trkpt lat="48.40453" lon="2.59188">
        <ele>136.51</ele>
        <time>2014-01-04T12:48:12Z</time>
      </trkpt>
      <trkpt lat="48.40416" lon="2.59174">
        <ele>137.93</ele>
        <time>2014-01-04T12:48:27Z</time>
      </trkpt>
      <trkpt lat="48.4038" lon="2.59159">
        <ele>139.48</ele>
        <time>2014-01-04T12:48:40Z</time>
      </trkpt>
      <trkpt lat="48.40354" lon="2.59179">
        <ele>142.67</ele>
        <time>2014-01-04T12:48:55Z</time>
      </trkpt>
      <trkpt lat="48.40352" lon="2.5918">
        <ele>142.83</ele>
        <time>2014-01-04T12:48:56Z</time>
      </trkpt>
      <trkpt lat="48.40329" lon="2.59194">
        <ele>141.1</ele>
        <time>2014-01-04T12:49:05Z</time>
      </trkpt>
      <trkpt lat="48.40302" lon="2.59256">
        <ele>135.42</ele>
        <time>2014-01-04T12:49:15Z</time>
      </trkpt>
      <trkpt lat="48.40288" lon="2.59274">
        <ele>133.74</ele>
        <time>2014-01-04T12:49:18Z</time>
      </trkpt>
      <trkpt lat="48.40265" lon="2.59299">
        <ele>134.38</ele>
        <time>2014-01-04T12:49:30Z</time>
      </trkpt>
      <trkpt lat="48.40243" lon="2.59315">
        <ele>138.22</ele>
        <time>2014-01-04T12:49:45Z</time>
      </trkpt>
      <trkpt lat="48.4021" lon="2.59328">
        <ele>143.31</ele>
        <time>2014-01-04T12:50:17Z</time>
      </trkpt>
      <trkpt lat="48.40205" lon="2.59335">
        <ele>145.2</ele>
        <time>2014-01-04T12:50:22Z</time>
      </trkpt>
      <trkpt lat="48.4019" lon="2.59353">
        <ele>150.54</ele>
        <time>2014-01-04T12:50:37Z</time>
      </trkpt>
      <trkpt lat="48.40182" lon="2.59359">
        <ele>153.69</ele>
        <time>2014-01-04T12:50:49Z</time>
      </trkpt>
      <trkpt lat="48.40167" lon="2.59368">
        <ele>158.45</ele>
        <time>2014-01-04T12:51:13Z</time>
      </trkpt>
      <trkpt lat="48.40157" lon="2.59369">
        <ele>163.99</ele>
        <time>2014-01-04T12:51:39Z</time>
      </trkpt>
      <trkpt lat="48.40156" lon="2.59363">
        <ele>165.39</ele>
        <time>2014-01-04T12:52:04Z</time>
      </trkpt>
      <trkpt lat="48.40157" lon="2.59357">
        <ele>165.19</ele>
        <time>2014-01-04T12:53:00Z</time>
      </trkpt>
      <trkpt lat="48.40158" lon="2.59354">
        <ele>165.21</ele>
        <time>2014-01-04T12:53:02Z</time>
      </trkpt>
      <trkpt lat="48.40161" lon="2.59333">
        <ele>164.85</ele>
        <time>2014-01-04T12:53:10Z</time>
      </trkpt>
      <trkpt lat="48.40147" lon="2.5929">
        <ele>165.33</ele>
        <time>2014-01-04T12:53:29Z</time>
      </trkpt>
      <trkpt lat="48.40128" lon="2.59241">
        <ele>165.91</ele>
        <time>2014-01-04T12:53:52Z</time>
      </trkpt>
      <trkpt lat="48.40128" lon="2.59239">
        <ele>165.69</ele>
        <time>2014-01-04T12:54:42Z</time>
      </trkpt>
      <trkpt lat="48.40127" lon="2.59239">
        <ele>165.86</ele>
        <time>2014-01-04T12:55:13Z</time>
      </trkpt>
      <trkpt lat="48.40114" lon="2.59241">
        <ele>166.08</ele>
        <time>2014-01-04T12:55:21Z</time>
      </trkpt>
      <trkpt lat="48.40051" lon="2.59254">
        <ele>166.06</ele>
        <time>2014-01-04T12:55:46Z</time>
      </trkpt>
      <trkpt lat="48.40044" lon="2.59248">
        <ele>166.12</ele>
        <time>2014-01-04T12:55:50Z</time>
      </trkpt>
      <trkpt lat="48.40034" lon="2.59258">
        <ele>163.05</ele>
        <time>2014-01-04T12:55:56Z</time>
      </trkpt>
      <trkpt lat="48.40032" lon="2.59261">
        <ele>162.88</ele>
        <time>2014-01-04T12:55:57Z</time>
      </trkpt>
      <trkpt lat="48.40016" lon="2.59254">
        <ele>158.65</ele>
        <time>2014-01-04T12:56:05Z</time>
      </trkpt>
      <trkpt lat="48.39975" lon="2.59219">
        <ele>160.29</ele>
        <time>2014-01-04T12:56:27Z</time>
      </trkpt>
      <trkpt lat="48.39943" lon="2.59228">
        <ele>153.91</ele>
        <time>2014-01-04T12:56:41Z</time>
      </trkpt>
      <trkpt lat="48.39938" lon="2.59222">
        <ele>152.96</ele>
        <time>2014-01-04T12:57:00Z</time>
      </trkpt>
      <trkpt lat="48.39936" lon="2.59212">
        <ele>152.72</ele>
        <time>2014-01-04T12:57:30Z</time>
      </trkpt>
      <trkpt lat="48.39924" lon="2.59152">
        <ele>149.64</ele>
        <time>2014-01-04T12:57:40Z</time>
      </trkpt>
      <trkpt lat="48.39934" lon="2.59098">
        <ele>147.87</ele>
        <time>2014-01-04T12:57:48Z</time>
      </trkpt>
      <trkpt lat="48.39947" lon="2.5905">
        <ele>145.42</ele>
        <time>2014-01-04T12:58:00Z</time>
      </trkpt>
      <trkpt lat="48.39975" lon="2.59027">
        <ele>139.17</ele>
        <time>2014-01-04T12:58:11Z</time>
      </trkpt>
      <trkpt lat="48.39989" lon="2.59006">
        <ele>137.11</ele>
        <time>2014-01-04T12:58:14Z</time>
      </trkpt>
      <trkpt lat="48.40013" lon="2.58969">
        <ele>132.46</ele>
        <time>2014-01-04T12:58:18Z</time>
      </trkpt>
      <trkpt lat="48.40029" lon="2.58939">
        <ele>129.93</ele>
        <time>2014-01-04T12:58:21Z</time>
      </trkpt>
      <trkpt lat="48.40051" lon="2.58845">
        <ele>127.06</ele>
        <time>2014-01-04T12:58:29Z</time>
      </trkpt>
      <trkpt lat="48.4007" lon="2.58801">
        <ele>123.16</ele>
        <time>2014-01-04T12:58:33Z</time>
      </trkpt>
      <trkpt lat="48.40112" lon="2.58743">
        <ele>121.77</ele>
        <time>2014-01-04T12:58:43Z</time>
      </trkpt>
      <trkpt lat="48.40186" lon="2.58754">
        <ele>120.06</ele>
        <time>2014-01-04T12:58:59Z</time>
      </trkpt>
      <trkpt lat="48.40231" lon="2.58766">
        <ele>118.6</ele>
        <time>2014-01-04T12:59:11Z</time>
      </trkpt>
      <trkpt lat="48.40238" lon="2.58718">
        <ele>118.4</ele>
        <time>2014-01-04T12:59:25Z</time>
      </trkpt>
      <trkpt lat="48.4024" lon="2.58675">
        <ele>118.1</ele>
        <time>2014-01-04T12:59:32Z</time>
      </trkpt>
      <trkpt lat="48.40249" lon="2.58586">
        <ele>117.49</ele>
        <time>2014-01-04T12:59:46Z</time>
      </trkpt>
      <trkpt lat="48.40248" lon="2.58506">
        <ele>116.64</ele>
        <time>2014-01-04T13:00:00Z</time>
      </trkpt>
      <trkpt lat="48.40259" lon="2.58374">
        <ele>116.81</ele>
        <time>2014-01-04T13:00:22Z</time>
      </trkpt>
      <trkpt lat="48.4028" lon="2.58224">
        <ele>115.65</ele>
        <time>2014-01-04T13:00:44Z</time>
      </trkpt>
      <trkpt lat="48.40287" lon="2.58181">
        <ele>115.34</ele>
        <time>2014-01-04T13:00:50Z</time>
      </trkpt>
      <trkpt lat="48.40305" lon="2.58061">
        <ele>115.5</ele>
        <time>2014-01-04T13:01:06Z</time>
      </trkpt>
      <trkpt lat="48.40306" lon="2.58023">
        <ele>114.94</ele>
        <time>2014-01-04T13:01:11Z</time>
      </trkpt>
      <trkpt lat="48.40308" lon="2.57965">
        <ele>114.8</ele>
        <time>2014-01-04T13:01:19Z</time>
      </trkpt>
      <trkpt lat="48.40305" lon="2.57928">
        <ele>114.58</ele>
        <time>2014-01-04T13:01:24Z</time>
      </trkpt>
      <trkpt lat="48.403" lon="2.57858">
        <ele>113.81</ele>
        <time>2014-01-04T13:01:34Z</time>
      </trkpt>
      <trkpt lat="48.40292" lon="2.57784">
        <ele>113.59</ele>
        <time>2014-01-04T13:01:44Z</time>
      </trkpt>
      <trkpt lat="48.40271" lon="2.57489">
        <ele>114.38</ele>
        <time>2014-01-04T13:02:26Z</time>
      </trkpt>
      <trkpt lat="48.40271" lon="2.57392">
        <ele>114.11</ele>
        <time>2014-01-04T13:02:39Z</time>
      </trkpt>
      <trkpt lat="48.40272" lon="2.57329">
        <ele>114.24</ele>
        <time>2014-01-04T13:02:48Z</time>
      </trkpt>
      <trkpt lat="48.40268" lon="2.57246">
        <ele>113.67</ele>
        <time>2014-01-04T13:03:00Z</time>
      </trkpt>
      <trkpt lat="48.40272" lon="2.57169">
        <ele>113.66</ele>
        <time>2014-01-04T13:03:11Z</time>
      </trkpt>
      <trkpt lat="48.40269" lon="2.57128">
        <ele>113.76</ele>
        <time>2014-01-04T13:03:17Z</time>
      </trkpt>
      <trkpt lat="48.40267" lon="2.57064">
        <ele>113.84</ele>
        <time>2014-01-04T13:03:27Z</time>
      </trkpt>
      <trkpt lat="48.40263" lon="2.57007">
        <ele>113.67</ele>
        <time>2014-01-04T13:03:35Z</time>
      </trkpt>
      <trkpt lat="48.40258" lon="2.56853">
        <ele>113.44</ele>
        <time>2014-01-04T13:03:58Z</time>
      </trkpt>
      <trkpt lat="48.4026" lon="2.56816">
        <ele>113.44</ele>
        <time>2014-01-04T13:04:04Z</time>
      </trkpt>
      <trkpt lat="48.40268" lon="2.56745">
        <ele>113.69</ele>
        <time>2014-01-04T13:04:18Z</time>
      </trkpt>
      <trkpt lat="48.40258" lon="2.56674">
        <ele>113.37</ele>
        <time>2014-01-04T13:04:39Z</time>
      </trkpt>
      <trkpt lat="48.40254" lon="2.56659">
        <ele>113.41</ele>
        <time>2014-01-04T13:04:46Z</time>
      </trkpt>
      <trkpt lat="48.40247" lon="2.56638">
        <ele>114.66</ele>
        <time>2014-01-04T13:04:56Z</time>
      </trkpt>
      <trkpt lat="48.40235" lon="2.5659">
        <ele>116.78</ele>
        <time>2014-01-04T13:05:17Z</time>
      </trkpt>
      <trkpt lat="48.40239" lon="2.5657">
        <ele>116.72</ele>
        <time>2014-01-04T13:05:22Z</time>
      </trkpt>
      <trkpt lat="48.40246" lon="2.56539">
        <ele>116.65</ele>
        <time>2014-01-04T13:05:29Z</time>
      </trkpt>
      <trkpt lat="48.40262" lon="2.56446">
        <ele>116.86</ele>
        <time>2014-01-04T13:05:54Z</time>
      </trkpt>
      <trkpt lat="48.40265" lon="2.56399">
        <ele>116.15</ele>
        <time>2014-01-04T13:06:06Z</time>
      </trkpt>
      <trkpt lat="48.40248" lon="2.5638">
        <ele>117.59</ele>
        <time>2014-01-04T13:06:24Z</time>
      </trkpt>
      <trkpt lat="48.40233" lon="2.5636">
        <ele>118.83</ele>
        <time>2014-01-04T13:06:33Z</time>
      </trkpt>
      <trkpt lat="48.40221" lon="2.56355">
        <ele>118.91</ele>
        <time>2014-01-04T13:06:47Z</time>
      </trkpt>
      <trkpt lat="48.40226" lon="2.56348">
        <ele>119.11</ele>
        <time>2014-01-04T13:08:13Z</time>
      </trkpt>
      <trkpt lat="48.40185" lon="2.5634">
        <ele>118.51</ele>
        <time>2014-01-04T13:09:08Z</time>
      </trkpt>
      <trkpt lat="48.40151" lon="2.56338">
        <ele>120.74</ele>
        <time>2014-01-04T13:09:24Z</time>
      </trkpt>
      <trkpt lat="48.40147" lon="2.5633">
        <ele>120.96</ele>
        <time>2014-01-04T13:09:40Z</time>
      </trkpt>
      <trkpt lat="48.40105" lon="2.56286">
        <ele>119.78</ele>
        <time>2014-01-04T13:10:02Z</time>
      </trkpt>
      <trkpt lat="48.40084" lon="2.56271">
        <ele>118.85</ele>
        <time>2014-01-04T13:10:09Z</time>
      </trkpt>
      <trkpt lat="48.4006" lon="2.56255">
        <ele>115.68</ele>
        <time>2014-01-04T13:10:16Z</time>
      </trkpt>
      <trkpt lat="48.40058" lon="2.56252">
        <ele>115.54</ele>
        <time>2014-01-04T13:10:17Z</time>
      </trkpt>
      <trkpt lat="48.40045" lon="2.56236">
        <ele>114.13</ele>
        <time>2014-01-04T13:10:45Z</time>
      </trkpt>
      <trkpt lat="48.40044" lon="2.56236">
        <ele>114.16</ele>
        <time>2014-01-04T13:10:46Z</time>
      </trkpt>
      <trkpt lat="48.40019" lon="2.5627">
        <ele>113.49</ele>
        <time>2014-01-04T13:11:00Z</time>
      </trkpt>
      <trkpt lat="48.39981" lon="2.56316">
        <ele>114.64</ele>
        <time>2014-01-04T13:11:17Z</time>
      </trkpt>
      <trkpt lat="48.3998" lon="2.56355">
        <ele>114.12</ele>
        <time>2014-01-04T13:11:26Z</time>
      </trkpt>
      <trkpt lat="48.39972" lon="2.56446">
        <ele>115.16</ele>
        <time>2014-01-04T13:11:41Z</time>
      </trkpt>
      <trkpt lat="48.39955" lon="2.56533">
        <ele>114.91</ele>
        <time>2014-01-04T13:11:55Z</time>
      </trkpt>
      <trkpt lat="48.39911" lon="2.56704">
        <ele>114.34</ele>
        <time>2014-01-04T13:12:24Z</time>
      </trkpt>
      <trkpt lat="48.399" lon="2.56742">
        <ele>115.2</ele>
        <time>2014-01-04T13:12:30Z</time>
      </trkpt>
      <trkpt lat="48.39871" lon="2.56832">
        <ele>115.49</ele>
        <time>2014-01-04T13:12:44Z</time>
      </trkpt>
      <trkpt lat="48.3984" lon="2.56966">
        <ele>116.75</ele>
        <time>2014-01-04T13:13:04Z</time>
      </trkpt>
      <trkpt lat="48.39829" lon="2.57027">
        <ele>117.23</ele>
        <time>2014-01-04T13:13:13Z</time>
      </trkpt>
      <trkpt lat="48.39816" lon="2.57147">
        <ele>116.87</ele>
        <time>2014-01-04T13:13:31Z</time>
      </trkpt>
      <trkpt lat="48.39779" lon="2.57423">
        <ele>117.72</ele>
        <time>2014-01-04T13:14:17Z</time>
      </trkpt>
      <trkpt lat="48.39728" lon="2.57538">
        <ele>118.75</ele>
        <time>2014-01-04T13:14:41Z</time>
      </trkpt>
      <trkpt lat="48.39638" lon="2.57722">
        <ele>120.3</ele>
        <time>2014-01-04T13:15:21Z</time>
      </trkpt>
      <trkpt lat="48.39623" lon="2.5776">
        <ele>119.99</ele>
        <time>2014-01-04T13:15:29Z</time>
      </trkpt>
      <trkpt lat="48.39557" lon="2.57922">
        <ele>119.85</ele>
        <time>2014-01-04T13:15:57Z</time>
      </trkpt>
      <trkpt lat="48.39466" lon="2.58145">
        <ele>121.04</ele>
        <time>2014-01-04T13:16:43Z</time>
      </trkpt>
      <trkpt lat="48.39428" lon="2.58274">
        <ele>121.67</ele>
        <time>2014-01-04T13:17:13Z</time>
      </trkpt>
      <trkpt lat="48.39426" lon="2.58281">
        <ele>121.97</ele>
        <time>2014-01-04T13:17:15Z</time>
      </trkpt>
      <trkpt lat="48.39392" lon="2.58268">
        <ele>122.73</ele>
        <time>2014-01-04T13:17:27Z</time>
      </trkpt>
      <trkpt lat="48.39367" lon="2.5825">
        <ele>123.07</ele>
        <time>2014-01-04T13:17:35Z</time>
      </trkpt>
      <trkpt lat="48.3926" lon="2.58166">
        <ele>79.90625</ele>
      </trkpt>
      <trkpt lat="48.39249" lon="2.58152">
        <ele>123.61</ele>
        <time>2014-01-04T13:18:13Z</time>
      </trkpt>
      <trkpt lat="48.39242" lon="2.58141">
        <ele>80.8046875</ele>
      </trkpt>
      <trkpt lat="48.39235" lon="2.58131">
        <ele>80.33203125</ele>
      </trkpt>
      <trkpt lat="48.3921" lon="2.58116">
        <ele>127.33</ele>
        <time>2014-01-04T13:18:32Z</time>
      </trkpt>
      <trkpt lat="48.392" lon="2.58103">
        <ele>127.7</ele>
        <time>2014-01-04T13:23:57Z</time>
      </trkpt>
      <trkpt lat="48.39198" lon="2.58112">
        <ele>128.33</ele>
        <time>2014-01-04T13:26:31Z</time>
      </trkpt>
      <trkpt lat="48.39193" lon="2.58124">
        <ele>128.2</ele>
        <time>2014-01-04T13:26:54Z</time>
      </trkpt>
      <trkpt lat="48.39186" lon="2.58148">
        <ele>128.95</ele>
        <time>2014-01-04T13:31:17Z</time>
      </trkpt>
      <trkpt lat="48.39157" lon="2.58162">
        <ele>132.82</ele>
        <time>2014-01-04T13:31:43Z</time>
      </trkpt>
      <trkpt lat="48.39153" lon="2.58161">
        <ele>133.43</ele>
        <time>2014-01-04T13:31:45Z</time>
      </trkpt>
      <trkpt lat="48.39138" lon="2.58159">
        <ele>137.67</ele>
        <time>2014-01-04T13:32:00Z</time>
      </trkpt>
      <trkpt lat="48.39122" lon="2.58133">
        <ele>143.42</ele>
        <time>2014-01-04T13:32:30Z</time>
      </trkpt>
      <trkpt lat="48.39121" lon="2.58102">
        <ele>147.64</ele>
        <time>2014-01-04T13:32:55Z</time>
      </trkpt>
      <trkpt lat="48.39121" lon="2.5809">
        <ele>147.84</ele>
        <time>2014-01-04T13:33:14Z</time>
      </trkpt>
      <trkpt lat="48.39117" lon="2.5807">
        <ele>146.21</ele>
        <time>2014-01-04T13:33:22Z</time>
      </trkpt>
      <trkpt lat="48.39107" lon="2.58063">
        <ele>147.29</ele>
        <time>2014-01-04T13:33:51Z</time>
      </trkpt>
      <trkpt lat="48.39105" lon="2.58062">
        <ele>150.6</ele>
        <time>2014-01-04T13:34:17Z</time>
      </trkpt>
      <trkpt lat="48.39092" lon="2.58051">
        <ele>155.28</ele>
        <time>2014-01-04T13:34:45Z</time>
      </trkpt>
      <trkpt lat="48.39084" lon="2.58058">
        <ele>158.32</ele>
        <time>2014-01-04T13:35:00Z</time>
      </trkpt>
      <trkpt lat="48.39076" lon="2.58072">
        <ele>163.24</ele>
        <time>2014-01-04T13:35:27Z</time>
      </trkpt>
      <trkpt lat="48.39068" lon="2.58077">
        <ele>163.52</ele>
        <time>2014-01-04T13:35:40Z</time>
      </trkpt>
      <trkpt lat="48.39057" lon="2.58056">
        <ele>166.86</ele>
        <time>2014-01-04T13:36:04Z</time>
      </trkpt>
      <trkpt lat="48.39045" lon="2.58039">
        <ele>167.64</ele>
        <time>2014-01-04T13:36:47Z</time>
      </trkpt>
      <trkpt lat="48.3905" lon="2.58062">
        <ele>166</ele>
        <time>2014-01-04T13:41:42Z</time>
      </trkpt>
      <trkpt lat="48.39044" lon="2.58075">
        <ele>167.5</ele>
        <time>2014-01-04T13:41:50Z</time>
      </trkpt>
      <trkpt lat="48.39043" lon="2.5809">
        <ele>167.78</ele>
        <time>2014-01-04T13:41:57Z</time>
      </trkpt>
      <trkpt lat="48.39043" lon="2.58097">
        <ele>167.94</ele>
        <time>2014-01-04T13:42:01Z</time>
      </trkpt>
      <trkpt lat="48.39039" lon="2.58117">
        <ele>168.36</ele>
        <time>2014-01-04T13:42:14Z</time>
      </trkpt>
      <trkpt lat="48.39032" lon="2.58142">
        <ele>168.2</ele>
        <time>2014-01-04T13:42:37Z</time>
      </trkpt>
      <trkpt lat="48.39026" lon="2.58155">
        <ele>168.36</ele>
        <time>2014-01-04T13:43:03Z</time>
      </trkpt>
      <trkpt lat="48.39003" lon="2.58193">
        <ele>167.67</ele>
        <time>2014-01-04T13:43:19Z</time>
      </trkpt>
      <trkpt lat="48.38995" lon="2.58231">
        <ele>168.36</ele>
        <time>2014-01-04T13:43:30Z</time>
      </trkpt>
      <trkpt lat="48.39009" lon="2.58259">
        <ele>168.85</ele>
        <time>2014-01-04T13:43:45Z</time>
      </trkpt>
      <trkpt lat="48.39019" lon="2.58271">
        <ele>168.89</ele>
        <time>2014-01-04T13:43:58Z</time>
      </trkpt>
      <trkpt lat="48.39021" lon="2.5832">
        <ele>168.77</ele>
        <time>2014-01-04T13:44:14Z</time>
      </trkpt>
      <trkpt lat="48.39025" lon="2.5835">
        <ele>168.25</ele>
        <time>2014-01-04T13:44:29Z</time>
      </trkpt>
      <trkpt lat="48.39032" lon="2.58379">
        <ele>168.71</ele>
        <time>2014-01-04T13:44:48Z</time>
      </trkpt>
      <trkpt lat="48.39028" lon="2.58378">
        <ele>168.44</ele>
        <time>2014-01-04T13:45:33Z</time>
      </trkpt>
      <trkpt lat="48.39017" lon="2.58417">
        <ele>168.98</ele>
        <time>2014-01-04T13:45:48Z</time>
      </trkpt>
      <trkpt lat="48.39012" lon="2.58439">
        <ele>168.71</ele>
        <time>2014-01-04T13:46:00Z</time>
      </trkpt>
      <trkpt lat="48.39003" lon="2.58499">
        <ele>168.5</ele>
        <time>2014-01-04T13:46:24Z</time>
      </trkpt>
      <trkpt lat="48.38985" lon="2.58536">
        <ele>168.8</ele>
        <time>2014-01-04T13:46:50Z</time>
      </trkpt>
      <trkpt lat="48.38982" lon="2.58549">
        <ele>168.25</ele>
        <time>2014-01-04T13:46:56Z</time>
      </trkpt>
      <trkpt lat="48.38968" lon="2.58592">
        <ele>168.7</ele>
        <time>2014-01-04T13:47:18Z</time>
      </trkpt>
      <trkpt lat="48.38945" lon="2.5866">
        <ele>167.13</ele>
        <time>2014-01-04T13:47:42Z</time>
      </trkpt>
      <trkpt lat="48.38939" lon="2.58737">
        <ele>168.2</ele>
        <time>2014-01-04T13:48:03Z</time>
      </trkpt>
      <trkpt lat="48.38927" lon="2.58789">
        <ele>168.33</ele>
        <time>2014-01-04T13:48:23Z</time>
      </trkpt>
      <trkpt lat="48.38925" lon="2.58819">
        <ele>168.15</ele>
        <time>2014-01-04T13:48:34Z</time>
      </trkpt>
      <trkpt lat="48.38934" lon="2.58853">
        <ele>168.4</ele>
        <time>2014-01-04T13:48:51Z</time>
      </trkpt>
      <trkpt lat="48.38931" lon="2.58916">
        <ele>168.12</ele>
        <time>2014-01-04T13:49:14Z</time>
      </trkpt>
      <trkpt lat="48.38935" lon="2.58936">
        <ele>168.17</ele>
        <time>2014-01-04T13:49:23Z</time>
      </trkpt>
      <trkpt lat="48.38936" lon="2.5898">
        <ele>168.09</ele>
        <time>2014-01-04T13:49:38Z</time>
      </trkpt>
      <trkpt lat="48.38943" lon="2.59018">
        <ele>167.17</ele>
        <time>2014-01-04T13:49:53Z</time>
      </trkpt>
      <trkpt lat="48.38936" lon="2.59065">
        <ele>166.71</ele>
        <time>2014-01-04T13:50:08Z</time>
      </trkpt>
      <trkpt lat="48.38931" lon="2.59108">
        <ele>166.66</ele>
        <time>2014-01-04T13:50:22Z</time>
      </trkpt>
      <trkpt lat="48.38938" lon="2.59187">
        <ele>165.59</ele>
        <time>2014-01-04T13:50:50Z</time>
      </trkpt>
      <trkpt lat="48.3893" lon="2.59254">
        <ele>166.14</ele>
        <time>2014-01-04T13:51:12Z</time>
      </trkpt>
      <trkpt lat="48.38929" lon="2.59262">
        <ele>166.11</ele>
        <time>2014-01-04T13:51:18Z</time>
      </trkpt>
      <trkpt lat="48.38915" lon="2.59316">
        <ele>165.13</ele>
        <time>2014-01-04T13:51:37Z</time>
      </trkpt>
      <trkpt lat="48.38912" lon="2.59321">
        <ele>164.74</ele>
        <time>2014-01-04T13:51:55Z</time>
      </trkpt>
      <trkpt lat="48.38911" lon="2.59356">
        <ele>164.78</ele>
        <time>2014-01-04T13:52:37Z</time>
      </trkpt>
      <trkpt lat="48.38902" lon="2.59396">
        <ele>165.06</ele>
        <time>2014-01-04T13:52:55Z</time>
      </trkpt>
      <trkpt lat="48.38891" lon="2.59434">
        <ele>165.13</ele>
        <time>2014-01-04T13:53:17Z</time>
      </trkpt>
      <trkpt lat="48.38893" lon="2.59435">
        <ele>165.05</ele>
        <time>2014-01-04T13:53:21Z</time>
      </trkpt>
      <trkpt lat="48.38903" lon="2.59463">
        <ele>164.29</ele>
        <time>2014-01-04T13:53:34Z</time>
      </trkpt>
      <trkpt lat="48.38926" lon="2.59482">
        <ele>160.91</ele>
        <time>2014-01-04T13:53:47Z</time>
      </trkpt>
      <trkpt lat="48.38918" lon="2.59512">
        <ele>159.82</ele>
        <time>2014-01-04T13:54:00Z</time>
      </trkpt>
      <trkpt lat="48.38898" lon="2.59548">
        <ele>160.83</ele>
        <time>2014-01-04T13:54:17Z</time>
      </trkpt>
      <trkpt lat="48.38897" lon="2.59565">
        <ele>159.95</ele>
        <time>2014-01-04T13:54:23Z</time>
      </trkpt>
      <trkpt lat="48.38897" lon="2.59612">
        <ele>160.63</ele>
        <time>2014-01-04T13:54:37Z</time>
      </trkpt>
      <trkpt lat="48.38915" lon="2.59695">
        <ele>163.46</ele>
        <time>2014-01-04T13:55:04Z</time>
      </trkpt>
      <trkpt lat="48.38915" lon="2.59723">
        <ele>163.7</ele>
        <time>2014-01-04T13:55:11Z</time>
      </trkpt>
      <trkpt lat="48.3891" lon="2.59751">
        <ele>164.05</ele>
        <time>2014-01-04T13:55:19Z</time>
      </trkpt>
      <trkpt lat="48.38907" lon="2.59774">
        <ele>163.83</ele>
        <time>2014-01-04T13:55:26Z</time>
      </trkpt>
      <trkpt lat="48.38934" lon="2.59797">
        <ele>166.12</ele>
        <time>2014-01-04T13:55:45Z</time>
      </trkpt>
      <trkpt lat="48.38978" lon="2.59805">
        <ele>166.77</ele>
        <time>2014-01-04T13:56:00Z</time>
      </trkpt>
      <trkpt lat="48.39098" lon="2.59827">
        <ele>166.79</ele>
        <time>2014-01-04T13:56:30Z</time>
      </trkpt>
      <trkpt lat="48.39169" lon="2.59842">
        <ele>163.44</ele>
        <time>2014-01-04T13:56:45Z</time>
      </trkpt>
      <trkpt lat="48.39215" lon="2.59851">
        <ele>160.02</ele>
        <time>2014-01-04T13:56:53Z</time>
      </trkpt>
      <trkpt lat="48.39251" lon="2.59858">
        <ele>156.85</ele>
        <time>2014-01-04T13:57:00Z</time>
      </trkpt>
      <trkpt lat="48.39279" lon="2.59861">
        <ele>153.11</ele>
        <time>2014-01-04T13:57:04Z</time>
      </trkpt>
      <trkpt lat="48.39333" lon="2.59886">
        <ele>145.2</ele>
        <time>2014-01-04T13:57:10Z</time>
      </trkpt>
      <trkpt lat="48.39363" lon="2.59905">
        <ele>141.85</ele>
        <time>2014-01-04T13:57:13Z</time>
      </trkpt>
      <trkpt lat="48.3939" lon="2.59922">
        <ele>138.57</ele>
        <time>2014-01-04T13:57:16Z</time>
      </trkpt>
      <trkpt lat="48.39437" lon="2.5995">
        <ele>134.29</ele>
        <time>2014-01-04T13:57:22Z</time>
      </trkpt>
      <trkpt lat="48.39457" lon="2.59963">
        <ele>131.26</ele>
        <time>2014-01-04T13:57:25Z</time>
      </trkpt>
      <trkpt lat="48.39463" lon="2.59967">
        <ele>131.1</ele>
        <time>2014-01-04T13:57:26Z</time>
      </trkpt>
      <trkpt lat="48.39545" lon="2.59982">
        <ele>129.61</ele>
        <time>2014-01-04T13:57:46Z</time>
      </trkpt>
      <trkpt lat="48.39596" lon="2.59968">
        <ele>133.01</ele>
        <time>2014-01-04T13:58:12Z</time>
      </trkpt>
      <trkpt lat="48.39607" lon="2.59968">
        <ele>135.91</ele>
        <time>2014-01-04T13:58:35Z</time>
      </trkpt>
      <trkpt lat="48.39621" lon="2.59969">
        <ele>140.99</ele>
        <time>2014-01-04T13:59:11Z</time>
      </trkpt>
      <trkpt lat="48.39628" lon="2.59975">
        <ele>141.72</ele>
        <time>2014-01-04T13:59:23Z</time>
      </trkpt>
      <trkpt lat="48.39643" lon="2.60017">
        <ele>144.63</ele>
        <time>2014-01-04T13:59:47Z</time>
      </trkpt>
      <trkpt lat="48.39672" lon="2.60052">
        <ele>147.54</ele>
        <time>2014-01-04T14:00:10Z</time>
      </trkpt>
      <trkpt lat="48.39697" lon="2.60057">
        <ele>152.04</ele>
        <time>2014-01-04T14:00:38Z</time>
      </trkpt>
      <trkpt lat="48.39705" lon="2.60057">
        <ele>153.08</ele>
        <time>2014-01-04T14:00:48Z</time>
      </trkpt>
      <trkpt lat="48.39711" lon="2.60065">
        <ele>153.45</ele>
        <time>2014-01-04T14:00:56Z</time>
      </trkpt>
      <trkpt lat="48.39715" lon="2.60073">
        <ele>153.7</ele>
        <time>2014-01-04T14:01:02Z</time>
      </trkpt>
      <trkpt lat="48.39733" lon="2.60107">
        <ele>154.34</ele>
        <time>2014-01-04T14:01:17Z</time>
      </trkpt>
      <trkpt lat="48.39745" lon="2.60128">
        <ele>153.14</ele>
        <time>2014-01-04T14:01:29Z</time>
      </trkpt>
      <trkpt lat="48.39754" lon="2.60136">
        <ele>151.9</ele>
        <time>2014-01-04T14:01:34Z</time>
      </trkpt>
      <trkpt lat="48.39795" lon="2.60191">
        <ele>151.93</ele>
        <time>2014-01-04T14:02:01Z</time>
      </trkpt>
      <trkpt lat="48.39794" lon="2.60225">
        <ele>151.06</ele>
        <time>2014-01-04T14:02:25Z</time>
      </trkpt>
      <trkpt lat="48.39796" lon="2.60227">
        <ele>151.2</ele>
        <time>2014-01-04T14:02:34Z</time>
      </trkpt>
      <trkpt lat="48.39813" lon="2.60247">
        <ele>152.15</ele>
        <time>2014-01-04T14:02:44Z</time>
      </trkpt>
      <trkpt lat="48.39851" lon="2.60335">
        <ele>152.75</ele>
        <time>2014-01-04T14:03:05Z</time>
      </trkpt>
      <trkpt lat="48.39879" lon="2.60407">
        <ele>153.12</ele>
        <time>2014-01-04T14:03:22Z</time>
      </trkpt>
      <trkpt lat="48.39912" lon="2.60415">
        <ele>153.59</ele>
        <time>2014-01-04T14:03:34Z</time>
      </trkpt>
      <trkpt lat="48.39989" lon="2.60471">
        <ele>154.31</ele>
        <time>2014-01-04T14:03:59Z</time>
      </trkpt>
      <trkpt lat="48.40071" lon="2.60478">
        <ele>157.29</ele>
        <time>2014-01-04T14:04:28Z</time>
      </trkpt>
      <trkpt lat="48.40098" lon="2.60464">
        <ele>161.77</ele>
        <time>2014-01-04T14:04:45Z</time>
      </trkpt>
      <trkpt lat="48.4011" lon="2.60467">
        <ele>163.79</ele>
        <time>2014-01-04T14:04:52Z</time>
      </trkpt>
      <trkpt lat="48.40131" lon="2.60485">
        <ele>166.13</ele>
        <time>2014-01-04T14:05:04Z</time>
      </trkpt>
      <trkpt lat="48.40207" lon="2.60497">
        <ele>163.59</ele>
        <time>2014-01-04T14:05:31Z</time>
      </trkpt>
      <trkpt lat="48.40218" lon="2.60502">
        <ele>164.58</ele>
        <time>2014-01-04T14:05:37Z</time>
      </trkpt>
      <trkpt lat="48.40239" lon="2.60525">
        <ele>166.1</ele>
        <time>2014-01-04T14:06:03Z</time>
      </trkpt>
      <trkpt lat="48.40238" lon="2.60527">
        <ele>166.34</ele>
        <time>2014-01-04T14:06:53Z</time>
      </trkpt>
      <trkpt lat="48.40237" lon="2.60526">
        <ele>165.51</ele>
        <time>2014-01-04T14:07:34Z</time>
      </trkpt>
      <trkpt lat="48.40265" lon="2.60562">
        <ele>168.16</ele>
        <time>2014-01-04T14:07:55Z</time>
      </trkpt>
      <trkpt lat="48.40302" lon="2.60623">
        <ele>164.34</ele>
        <time>2014-01-04T14:08:14Z</time>
      </trkpt>
      <trkpt lat="48.4034" lon="2.60672">
        <ele>165.97</ele>
        <time>2014-01-04T14:08:33Z</time>
      </trkpt>
      <trkpt lat="48.40389" lon="2.60711">
        <ele>166.4</ele>
        <time>2014-01-04T14:09:01Z</time>
      </trkpt>
      <trkpt lat="48.404" lon="2.60713">
        <ele>167.02</ele>
        <time>2014-01-04T14:09:06Z</time>
      </trkpt>
      <trkpt lat="48.40429" lon="2.60718">
        <ele>168.25</ele>
        <time>2014-01-04T14:09:18Z</time>
      </trkpt>
      <trkpt lat="48.40513" lon="2.60726">
        <ele>169.27</ele>
        <time>2014-01-04T14:09:47Z</time>
      </trkpt>
      <trkpt lat="48.40612" lon="2.60735">
        <ele>168.54</ele>
        <time>2014-01-04T14:10:16Z</time>
      </trkpt>
      <trkpt lat="48.40663" lon="2.60739">
        <ele>167.88</ele>
        <time>2014-01-04T14:10:30Z</time>
      </trkpt>
      <trkpt lat="48.40678" lon="2.60709">
        <ele>163.76</ele>
        <time>2014-01-04T14:10:41Z</time>
      </trkpt>
      <trkpt lat="48.40679" lon="2.60699">
        <ele>160.54</ele>
        <time>2014-01-04T14:10:45Z</time>
      </trkpt>
      <trkpt lat="48.40686" lon="2.60694">
        <ele>158.96</ele>
        <time>2014-01-04T14:10:54Z</time>
      </trkpt>
      <trkpt lat="48.40706" lon="2.60689">
        <ele>155.13</ele>
        <time>2014-01-04T14:11:08Z</time>
      </trkpt>
      <trkpt lat="48.40706" lon="2.60689">
        <ele>155.09</ele>
        <time>2014-01-04T14:11:16Z</time>
      </trkpt>
      <trkpt lat="48.40712" lon="2.60686">
        <ele>153.24</ele>
        <time>2014-01-04T14:11:50Z</time>
      </trkpt>
      <trkpt lat="48.40719" lon="2.60687">
        <ele>151.17</ele>
        <time>2014-01-04T14:12:06Z</time>
      </trkpt>
      <trkpt lat="48.40733" lon="2.6069">
        <ele>147.64</ele>
        <time>2014-01-04T14:12:28Z</time>
      </trkpt>
      <trkpt lat="48.40753" lon="2.60694">
        <ele>145.74</ele>
        <time>2014-01-04T14:12:33Z</time>
      </trkpt>
      <trkpt lat="48.40774" lon="2.60696">
        <ele>142.12</ele>
        <time>2014-01-04T14:12:39Z</time>
      </trkpt>
      <trkpt lat="48.40779" lon="2.60698">
        <ele>142.12</ele>
        <time>2014-01-04T14:12:53Z</time>
      </trkpt>
      <trkpt lat="48.40809" lon="2.60705">
        <ele>141.69</ele>
        <time>2014-01-04T14:13:53Z</time>
      </trkpt>
      <trkpt lat="48.40824" lon="2.60716">
        <ele>140.92</ele>
        <time>2014-01-04T14:14:00Z</time>
      </trkpt>
      <trkpt lat="48.4085" lon="2.60714">
        <ele>137.67</ele>
        <time>2014-01-04T14:14:09Z</time>
      </trkpt>
      <trkpt lat="48.40884" lon="2.6073">
        <ele>133.19</ele>
        <time>2014-01-04T14:14:22Z</time>
      </trkpt>
      <trkpt lat="48.40889" lon="2.60734">
        <ele>131.84</ele>
        <time>2014-01-04T14:14:33Z</time>
      </trkpt>
      <trkpt lat="48.40917" lon="2.60749">
        <ele>129.04</ele>
        <time>2014-01-04T14:14:55Z</time>
      </trkpt>
      <trkpt lat="48.40922" lon="2.60749">
        <ele>129.1</ele>
        <time>2014-01-04T14:15:59Z</time>
      </trkpt>
      <trkpt lat="48.40973" lon="2.60764">
        <ele>127.35</ele>
        <time>2014-01-04T14:16:53Z</time>
      </trkpt>
      <trkpt lat="48.40995" lon="2.60771">
        <ele>126.65</ele>
        <time>2014-01-04T14:17:00Z</time>
      </trkpt>
      <trkpt lat="48.41005" lon="2.6079">
        <ele>126.54</ele>
        <time>2014-01-04T14:17:07Z</time>
      </trkpt>
      <trkpt lat="48.4101" lon="2.60803">
        <ele>127.14</ele>
        <time>2014-01-04T14:17:35Z</time>
      </trkpt>
      <trkpt lat="48.41014" lon="2.60808">
        <ele>127.07</ele>
        <time>2014-01-04T14:18:10Z</time>
      </trkpt>
      <trkpt lat="48.41028" lon="2.6081">
        <ele>127.69</ele>
        <time>2014-01-04T14:18:17Z</time>
      </trkpt>
      <trkpt lat="48.41048" lon="2.60814">
        <ele>127.21</ele>
        <time>2014-01-04T14:18:24Z</time>
      </trkpt>
      <trkpt lat="48.41092" lon="2.6086">
        <ele>125.97</ele>
        <time>2014-01-04T14:18:36Z</time>
      </trkpt>
      <trkpt lat="48.41122" lon="2.60949">
        <ele>126.49</ele>
        <time>2014-01-04T14:18:55Z</time>
      </trkpt>
      <trkpt lat="48.41101" lon="2.6096">
        <ele>130.14</ele>
        <time>2014-01-04T15:07:23Z</time>
      </trkpt>
      <trkpt lat="48.41047" lon="2.6098">
        <ele>133.44</ele>
        <time>2014-01-04T15:07:15Z</time>
      </trkpt>
      <trkpt lat="48.40987" lon="2.60973">
        <ele>138.82</ele>
        <time>2014-01-04T15:07:07Z</time>
      </trkpt>
      <trkpt lat="48.4093" lon="2.61011">
        <ele>144.83</ele>
        <time>2014-01-04T15:06:53Z</time>
      </trkpt>
      <trkpt lat="48.40895" lon="2.61041">
        <ele>143.91</ele>
        <time>2014-01-04T15:06:40Z</time>
      </trkpt>
      <trkpt lat="48.40885" lon="2.61056">
        <ele>141.97</ele>
        <time>2014-01-04T15:06:34Z</time>
      </trkpt>
      <trkpt lat="48.40874" lon="2.61098">
        <ele>138.83</ele>
        <time>2014-01-04T15:06:22Z</time>
      </trkpt>
      <trkpt lat="48.40874" lon="2.61163">
        <ele>136.31</ele>
        <time>2014-01-04T15:06:06Z</time>
      </trkpt>
      <trkpt lat="48.40901" lon="2.61347">
        <ele>134.57</ele>
        <time>2014-01-04T15:05:34Z</time>
      </trkpt>
      <trkpt lat="48.40913" lon="2.61413">
        <ele>135.53</ele>
        <time>2014-01-04T15:05:25Z</time>
      </trkpt>
      <trkpt lat="48.40912" lon="2.61431">
        <ele>135.61</ele>
        <time>2014-01-04T15:05:23Z</time>
      </trkpt>
      <trkpt lat="48.40903" lon="2.61468">
        <ele>137.58</ele>
        <time>2014-01-04T15:05:19Z</time>
      </trkpt>
      <trkpt lat="48.40899" lon="2.61484">
        <ele>138.29</ele>
        <time>2014-01-04T15:05:17Z</time>
      </trkpt>
      <trkpt lat="48.40856" lon="2.61572">
        <ele>139.98</ele>
        <time>2014-01-04T15:04:58Z</time>
      </trkpt>
      <trkpt lat="48.40846" lon="2.616">
        <ele>140.1</ele>
        <time>2014-01-04T15:04:51Z</time>
      </trkpt>
      <trkpt lat="48.40817" lon="2.61789">
        <ele>141.02</ele>
        <time>2014-01-04T15:04:05Z</time>
      </trkpt>
      <trkpt lat="48.40814" lon="2.61806">
        <ele>141.51</ele>
        <time>2014-01-04T15:04:01Z</time>
      </trkpt>
      <trkpt lat="48.40844" lon="2.618">
        <ele>143.04</ele>
        <time>2014-01-04T15:03:53Z</time>
      </trkpt>
      <trkpt lat="48.40865" lon="2.61777">
        <ele>144.98</ele>
        <time>2014-01-04T15:03:49Z</time>
      </trkpt>
      <trkpt lat="48.40874" lon="2.61767">
        <ele>145.78</ele>
        <time>2014-01-04T15:03:47Z</time>
      </trkpt>
      <trkpt lat="48.40883" lon="2.61754">
        <ele>146.99</ele>
        <time>2014-01-04T15:03:38Z</time>
      </trkpt>
      <trkpt lat="48.4089" lon="2.61745">
        <ele>149.88</ele>
        <time>2014-01-04T15:03:17Z</time>
      </trkpt>
      <trkpt lat="48.40904" lon="2.61745">
        <ele>153.39</ele>
        <time>2014-01-04T15:02:58Z</time>
      </trkpt>
      <trkpt lat="48.40913" lon="2.61733">
        <ele>155.81</ele>
        <time>2014-01-04T15:02:47Z</time>
      </trkpt>
      <trkpt lat="48.40923" lon="2.61712">
        <ele>161.53</ele>
        <time>2014-01-04T15:02:32Z</time>
      </trkpt>
      <trkpt lat="48.40924" lon="2.61703">
        <ele>162.06</ele>
        <time>2014-01-04T15:02:24Z</time>
      </trkpt>
      <trkpt lat="48.40937" lon="2.61698">
        <ele>166.94</ele>
        <time>2014-01-04T15:02:12Z</time>
      </trkpt>
      <trkpt lat="48.40948" lon="2.61709">
        <ele>170.36</ele>
        <time>2014-01-04T15:02:01Z</time>
      </trkpt>
      <trkpt lat="48.4096" lon="2.61721">
        <ele>170.31</ele>
        <time>2014-01-04T15:01:47Z</time>
      </trkpt>
      <trkpt lat="48.40977" lon="2.61749">
        <ele>171.07</ele>
        <time>2014-01-04T15:01:31Z</time>
      </trkpt>
      <trkpt lat="48.40978" lon="2.6175">
        <ele>170.7</ele>
        <time>2014-01-04T15:00:48Z</time>
      </trkpt>
      <trkpt lat="48.40978" lon="2.61751">
        <ele>170.84</ele>
        <time>2014-01-04T15:00:35Z</time>
      </trkpt>
      <trkpt lat="48.40967" lon="2.61764">
        <ele>172.52</ele>
        <time>2014-01-04T14:59:42Z</time>
      </trkpt>
      <trkpt lat="48.40961" lon="2.61789">
        <ele>173.06</ele>
        <time>2014-01-04T14:59:12Z</time>
      </trkpt>
      <trkpt lat="48.40957" lon="2.61798">
        <ele>173.88</ele>
        <time>2014-01-04T14:59:02Z</time>
      </trkpt>
      <trkpt lat="48.40953" lon="2.61814">
        <ele>173.86</ele>
        <time>2014-01-04T14:58:35Z</time>
      </trkpt>
      <trkpt lat="48.40958" lon="2.61846">
        <ele>173.45</ele>
        <time>2014-01-04T14:58:15Z</time>
      </trkpt>
      <trkpt lat="48.40959" lon="2.61846">
        <ele>173.63</ele>
        <time>2014-01-04T14:58:09Z</time>
      </trkpt>
      <trkpt lat="48.40956" lon="2.61857">
        <ele>173.49</ele>
        <time>2014-01-04T14:58:02Z</time>
      </trkpt>
      <trkpt lat="48.40945" lon="2.61902">
        <ele>170.75</ele>
        <time>2014-01-04T14:57:46Z</time>
      </trkpt>
      <trkpt lat="48.4095" lon="2.61922">
        <ele>170.84</ele>
        <time>2014-01-04T14:57:42Z</time>
      </trkpt>
      <trkpt lat="48.40971" lon="2.61946">
        <ele>174.04</ele>
        <time>2014-01-04T14:57:32Z</time>
      </trkpt>
      <trkpt lat="48.40953" lon="2.61961">
        <ele>174.1</ele>
        <time>2014-01-04T14:57:15Z</time>
      </trkpt>
      <trkpt lat="48.40944" lon="2.61987">
        <ele>174.3</ele>
        <time>2014-01-04T14:56:56Z</time>
      </trkpt>
      <trkpt lat="48.40936" lon="2.61991">
        <ele>174</ele>
        <time>2014-01-04T14:56:46Z</time>
      </trkpt>
      <trkpt lat="48.40934" lon="2.61984">
        <ele>173.8</ele>
        <time>2014-01-04T14:56:36Z</time>
      </trkpt>
      <trkpt lat="48.40927" lon="2.62023">
        <ele>173.21</ele>
        <time>2014-01-04T14:56:06Z</time>
      </trkpt>
      <trkpt lat="48.40923" lon="2.62034">
        <ele>173.4</ele>
        <time>2014-01-04T14:56:00Z</time>
      </trkpt>
      <trkpt lat="48.40915" lon="2.62073">
        <ele>173.77</ele>
        <time>2014-01-04T14:55:20Z</time>
      </trkpt>
      <trkpt lat="48.40908" lon="2.62101">
        <ele>174.35</ele>
        <time>2014-01-04T14:54:39Z</time>
      </trkpt>
      <trkpt lat="48.40896" lon="2.62137">
        <ele>174.88</ele>
        <time>2014-01-04T14:54:19Z</time>
      </trkpt>
      <trkpt lat="48.40903" lon="2.62146">
        <ele>175.04</ele>
        <time>2014-01-04T14:54:13Z</time>
      </trkpt>
      <trkpt lat="48.40912" lon="2.6215">
        <ele>176.11</ele>
        <time>2014-01-04T14:53:58Z</time>
      </trkpt>
      <trkpt lat="48.40906" lon="2.62186">
        <ele>175.25</ele>
        <time>2014-01-04T14:53:43Z</time>
      </trkpt>
      <trkpt lat="48.40906" lon="2.62209">
        <ele>173.7</ele>
        <time>2014-01-04T14:53:34Z</time>
      </trkpt>
      <trkpt lat="48.40907" lon="2.6221">
        <ele>173.43</ele>
        <time>2014-01-04T14:53:33Z</time>
      </trkpt>
      <trkpt lat="48.40913" lon="2.62254">
        <ele>171.49</ele>
        <time>2014-01-04T14:53:14Z</time>
      </trkpt>
      <trkpt lat="48.40942" lon="2.62274">
        <ele>172.44</ele>
        <time>2014-01-04T14:52:55Z</time>
      </trkpt>
      <trkpt lat="48.4096" lon="2.62293">
        <ele>172.53</ele>
        <time>2014-01-04T14:52:42Z</time>
      </trkpt>
      <trkpt lat="48.40946" lon="2.62316">
        <ele>174.8</ele>
        <time>2014-01-04T14:52:31Z</time>
      </trkpt>
      <trkpt lat="48.40951" lon="2.62329">
        <ele>173.85</ele>
        <time>2014-01-04T14:52:24Z</time>
      </trkpt>
      <trkpt lat="48.40951" lon="2.6233">
        <ele>173.82</ele>
        <time>2014-01-04T14:52:23Z</time>
      </trkpt>
      <trkpt lat="48.40958" lon="2.62329">
        <ele>172.73</ele>
        <time>2014-01-04T14:52:14Z</time>
      </trkpt>
      <trkpt lat="48.40957" lon="2.6235">
        <ele>174.92</ele>
        <time>2014-01-04T14:51:55Z</time>
      </trkpt>
      <trkpt lat="48.40957" lon="2.62358">
        <ele>175.06</ele>
        <time>2014-01-04T14:51:33Z</time>
      </trkpt>
      <trkpt lat="48.40947" lon="2.62368">
        <ele>174.99</ele>
        <time>2014-01-04T14:51:11Z</time>
      </trkpt>
      <trkpt lat="48.40939" lon="2.6239">
        <ele>174.43</ele>
        <time>2014-01-04T14:51:02Z</time>
      </trkpt>
      <trkpt lat="48.4093" lon="2.62415">
        <ele>173.94</ele>
        <time>2014-01-04T14:50:53Z</time>
      </trkpt>
      <trkpt lat="48.40923" lon="2.62437">
        <ele>173.53</ele>
        <time>2014-01-04T14:50:47Z</time>
      </trkpt>
      <trkpt lat="48.40903" lon="2.62506">
        <ele>176.04</ele>
        <time>2014-01-04T14:50:25Z</time>
      </trkpt>
      <trkpt lat="48.40904" lon="2.62545">
        <ele>175.36</ele>
        <time>2014-01-04T14:50:10Z</time>
      </trkpt>
      <trkpt lat="48.40905" lon="2.62563">
        <ele>175.05</ele>
        <time>2014-01-04T14:50:05Z</time>
      </trkpt>
      <trkpt lat="48.40905" lon="2.62566">
        <ele>175.35</ele>
        <time>2014-01-04T14:49:54Z</time>
      </trkpt>
      <trkpt lat="48.40902" lon="2.62585">
        <ele>173.32</ele>
        <time>2014-01-04T14:49:01Z</time>
      </trkpt>
      <trkpt lat="48.40893" lon="2.62611">
        <ele>174.73</ele>
        <time>2014-01-04T14:48:38Z</time>
      </trkpt>
      <trkpt lat="48.40876" lon="2.62666">
        <ele>174.74</ele>
        <time>2014-01-04T14:48:10Z</time>
      </trkpt>
      <trkpt lat="48.40866" lon="2.62674">
        <ele>174.3</ele>
        <time>2014-01-04T14:48:03Z</time>
      </trkpt>
      <trkpt lat="48.40856" lon="2.6269">
        <ele>174.34</ele>
        <time>2014-01-04T14:47:53Z</time>
      </trkpt>
      <trkpt lat="48.40869" lon="2.62713">
        <ele>173.08</ele>
        <time>2014-01-04T14:47:29Z</time>
      </trkpt>
      <trkpt lat="48.40868" lon="2.62719">
        <ele>174.3</ele>
        <time>2014-01-04T14:47:19Z</time>
      </trkpt>
      <trkpt lat="48.40853" lon="2.6275">
        <ele>174.56</ele>
        <time>2014-01-04T14:47:02Z</time>
      </trkpt>
      <trkpt lat="48.40868" lon="2.62781">
        <ele>172.33</ele>
        <time>2014-01-04T14:46:45Z</time>
      </trkpt>
      <trkpt lat="48.40867" lon="2.62783">
        <ele>172.57</ele>
        <time>2014-01-04T14:46:41Z</time>
      </trkpt>
      <trkpt lat="48.40894" lon="2.62797">
        <ele>174.23</ele>
        <time>2014-01-04T14:46:23Z</time>
      </trkpt>
      <trkpt lat="48.40899" lon="2.62844">
        <ele>174.26</ele>
        <time>2014-01-04T14:46:06Z</time>
      </trkpt>
      <trkpt lat="48.40903" lon="2.62848">
        <ele>175.35</ele>
        <time>2014-01-04T14:46:01Z</time>
      </trkpt>
      <trkpt lat="48.40909" lon="2.62852">
        <ele>175.01</ele>
        <time>2014-01-04T14:45:41Z</time>
      </trkpt>
      <trkpt lat="48.40917" lon="2.62896">
        <ele>175.21</ele>
        <time>2014-01-04T14:45:21Z</time>
      </trkpt>
      <trkpt lat="48.40929" lon="2.62912">
        <ele>173.8</ele>
        <time>2014-01-04T14:45:10Z</time>
      </trkpt>
      <trkpt lat="48.40932" lon="2.62924">
        <ele>174.7</ele>
        <time>2014-01-04T14:45:05Z</time>
      </trkpt>
      <trkpt lat="48.40922" lon="2.6294">
        <ele>176.74</ele>
        <time>2014-01-04T14:44:58Z</time>
      </trkpt>
      <trkpt lat="48.40906" lon="2.62944">
        <ele>176.9</ele>
        <time>2014-01-04T14:44:34Z</time>
      </trkpt>
      <trkpt lat="48.40907" lon="2.62952">
        <ele>176.76</ele>
        <time>2014-01-04T14:44:29Z</time>
      </trkpt>
      <trkpt lat="48.40909" lon="2.62982">
        <ele>176.87</ele>
        <time>2014-01-04T14:44:13Z</time>
      </trkpt>
      <trkpt lat="48.40913" lon="2.62996">
        <ele>176</ele>
        <time>2014-01-04T14:44:01Z</time>
      </trkpt>
      <trkpt lat="48.40909" lon="2.63">
        <ele>175.83</ele>
        <time>2014-01-04T14:43:56Z</time>
      </trkpt>
      <trkpt lat="48.40907" lon="2.63026">
        <ele>175.43</ele>
        <time>2014-01-04T14:43:42Z</time>
      </trkpt>
      <trkpt lat="48.40892" lon="2.63047">
        <ele>174.93</ele>
        <time>2014-01-04T14:43:33Z</time>
      </trkpt>
      <trkpt lat="48.40886" lon="2.63061">
        <ele>174.54</ele>
        <time>2014-01-04T14:43:28Z</time>
      </trkpt>
      <trkpt lat="48.40855" lon="2.63079">
        <ele>175.93</ele>
        <time>2014-01-04T14:43:15Z</time>
      </trkpt>
      <trkpt lat="48.40812" lon="2.631">
        <ele>177.25</ele>
        <time>2014-01-04T14:42:57Z</time>
      </trkpt>
      <trkpt lat="48.40779" lon="2.63118">
        <ele>176.63</ele>
        <time>2014-01-04T14:42:39Z</time>
      </trkpt>
      <trkpt lat="48.40771" lon="2.63127">
        <ele>176.8</ele>
        <time>2014-01-04T14:42:34Z</time>
      </trkpt>
      <trkpt lat="48.40743" lon="2.63148">
        <ele>175.2</ele>
        <time>2014-01-04T14:42:16Z</time>
      </trkpt>
      <trkpt lat="48.40734" lon="2.63142">
        <ele>174.58</ele>
        <time>2014-01-04T14:41:47Z</time>
      </trkpt>
      <trkpt lat="48.40722" lon="2.63109">
        <ele>172.98</ele>
        <time>2014-01-04T14:41:27Z</time>
      </trkpt>
      <trkpt lat="48.407" lon="2.63105">
        <ele>174.55</ele>
        <time>2014-01-04T14:41:15Z</time>
      </trkpt>
      <trkpt lat="48.40675" lon="2.63129">
        <ele>175.43</ele>
        <time>2014-01-04T14:40:57Z</time>
      </trkpt>
      <trkpt lat="48.40677" lon="2.63137">
        <ele>175.64</ele>
        <time>2014-01-04T14:40:39Z</time>
      </trkpt>
      <trkpt lat="48.40677" lon="2.63137">
        <ele>175.4</ele>
        <time>2014-01-04T14:40:10Z</time>
      </trkpt>
      <trkpt lat="48.40707" lon="2.63154">
        <ele>176</ele>
        <time>2014-01-04T14:39:49Z</time>
      </trkpt>
      <trkpt lat="48.40724" lon="2.63157">
        <ele>175.17</ele>
        <time>2014-01-04T14:39:28Z</time>
      </trkpt>
      <trkpt lat="48.40731" lon="2.63197">
        <ele>175.1</ele>
        <time>2014-01-04T14:39:13Z</time>
      </trkpt>
      <trkpt lat="48.40734" lon="2.63285">
        <ele>176.08</ele>
        <time>2014-01-04T14:38:49Z</time>
      </trkpt>
      <trkpt lat="48.4073" lon="2.63299">
        <ele>175.99</ele>
        <time>2014-01-04T14:38:42Z</time>
      </trkpt>
      <trkpt lat="48.40712" lon="2.63348">
        <ele>176.57</ele>
        <time>2014-01-04T14:38:18Z</time>
      </trkpt>
      <trkpt lat="48.40712" lon="2.63353">
        <ele>176.03</ele>
        <time>2014-01-04T14:38:10Z</time>
      </trkpt>
      <trkpt lat="48.40739" lon="2.63383">
        <ele>177.41</ele>
        <time>2014-01-04T14:37:54Z</time>
      </trkpt>
      <trkpt lat="48.40765" lon="2.63394">
        <ele>176.76</ele>
        <time>2014-01-04T14:37:38Z</time>
      </trkpt>
      <trkpt lat="48.4078" lon="2.63404">
        <ele>174.16</ele>
        <time>2014-01-04T14:37:23Z</time>
      </trkpt>
      <trkpt lat="48.40809" lon="2.63391">
        <ele>173.74</ele>
        <time>2014-01-04T14:37:06Z</time>
      </trkpt>
      <trkpt lat="48.40816" lon="2.63391">
        <ele>131.546875</ele>
      </trkpt>
      <trkpt lat="48.40808" lon="2.63419">
        <ele>131.53125</ele>
      </trkpt>
      <trkpt lat="48.40804" lon="2.63439">
        <ele>131.56640625</ele>
      </trkpt>
      <trkpt lat="48.40798" lon="2.63528">
        <ele>131.89453125</ele>
      </trkpt>
      <trkpt lat="48.40798" lon="2.63556">
        <ele>131.91796875</ele>
      </trkpt>
      <trkpt lat="48.40802" lon="2.63574">
        <ele>131.9453125</ele>
      </trkpt>
      <trkpt lat="48.40797" lon="2.63597">
        <ele>131.515625</ele>
      </trkpt>
      <trkpt lat="48.40795" lon="2.63654">
        <ele>131.203125</ele>
      </trkpt>
      <trkpt lat="48.40798" lon="2.63679">
        <ele>131.375</ele>
      </trkpt>
      <trkpt lat="48.40799" lon="2.6371">
        <ele>131.40625</ele>
      </trkpt>
      <trkpt lat="48.40815" lon="2.63756">
        <ele>132.52734375</ele>
      </trkpt>
      <trkpt lat="48.40837" lon="2.63778">
        <ele>132.85546875</ele>
      </trkpt>
      <trkpt lat="48.40842" lon="2.63819">
        <ele>132.91015625</ele>
      </trkpt>
      <trkpt lat="48.40852" lon="2.63849">
        <ele>175.02</ele>
        <time>2014-01-04T14:36:53Z</time>
      </trkpt>
    </trkseg>
  </trk>
</gpx>